[[{"header":{"parameterUnit":"m.s-1","parameterCategory":1,"la1":30.2991,"la2":30.254,"lo1":-89.0895,"lo2":-89.0444,"dy":0.0017,"dx":0.0017,"nx":28,"ny":28,"refTime":"2025-01-15T03:00:00:Z","depth":0,"parameterNumber":2,"parameterNumberName":"U-component_of_WINDS"},"data":[0,0,0,0,0,0,0,0,0,0,0,0,0,0,0,0,0,0,0,0,0,0,0,0,0,0,0,0,0,0,0,0,0,0,0,0,0,0,0,0,0,0,0,0,0,0,0,0,0,0,0,0,0,0,0,0,0,0,-2.6901,-2.6902,0,-2.6965,-2.6966,-2.6967,-2.6884,-2.6881,-2.6878,-2.6875,-2.6944,-2.6949,-2.6953,0,0,0,0,0,0,0,0,0,0,0,0,0,-2.6709,-2.6713,-2.6901,-2.6902,-2.6903,-2.6965,-2.6966,-2.6967,-2.6884,-2.6881,-2.6877,-2.6873,-2.6943,-2.6948,-2.6954,0,0,0,0,0,0,0,0,0,0,0,0,0,-2.6785,-2.6714,-2.6901,-2.6869,-2.6867,-2.6965,-2.6966,-2.6967,-2.6885,-2.6881,-2.6876,-2.6872,-2.6941,-2.6948,-2.6954,-2.7089,0,0,-2.6976,-2.6979,0,0,0,0,0,0,0,0,-2.6781,-2.6792,-2.6873,-2.6871,-2.6869,-2.6912,-2.6924,-2.7008,-2.6886,-2.6878,-2.6875,-2.687,-2.6937,-2.6944,-2.6966,-2.7092,-2.7095,-2.6976,-2.6981,-2.6984,-2.6986,0,0,0,0,0,0,0,-2.6775,-2.6789,-2.6927,-2.6874,-2.6872,-2.6852,-2.6858,-2.6939,-2.6933,-2.6879,-2.6873,-2.6881,-2.6935,-2.696,-2.6967,-2.7096,-2.6976,-2.6982,-2.6987,-2.699,-2.7334,-2.7339,0,0,0,0,0,0,-2.6774,-2.6785,-2.6925,-2.6929,-2.6813,-2.6859,-2.6866,-2.6903,-2.6931,-2.6931,-2.6885,-2.6877,-2.695,-2.6959,-2.697,-2.7129,-2.6984,-2.699,-2.6994,-2.7329,-2.7335,-2.734,0,0,0,0,0,0,-2.677,-2.6787,-2.6922,-2.6855,-2.6871,-2.6867,-2.691,-2.6906,-2.6931,-2.6936,-2.6935,-2.6911,-2.6947,-2.696,-2.7059,-2.713,-2.6993,-2.7,-2.7323,-2.7331,-2.7338,-2.7449,0,0,0,0,0,0,-2.6765,-2.6786,-2.6837,-2.6857,-2.6875,-2.7011,-2.6914,-2.6911,-2.6943,-2.6933,-2.696,-2.6961,-2.6944,-2.7049,-2.7066,-2.7137,-2.7005,-2.7317,-2.7327,-2.7335,-2.7439,-2.7459,-2.7476,0,0,0,0,0,-2.6758,-2.6866,-2.684,-2.6857,-2.6938,-2.7015,-2.7025,-2.7003,-2.6949,-2.7,-2.7003,-2.696,-2.7119,-2.706,-2.7079,-2.7153,-2.7312,-2.7324,-2.7335,-2.743,-2.7455,-2.7476,0,0,0,0,0,0,-2.6856,-2.6868,-2.6839,-2.6957,-2.6985,-2.7001,-2.7065,-2.703,-2.7075,-2.7065,-2.7036,-2.7043,-2.7149,-2.716,-2.7095,-2.7284,-2.7207,-2.7222,-2.7273,-2.7297,-2.7315,-2.7312,-2.7011,0,0,0,0,0,-2.6891,-2.6952,-2.6959,-2.7062,-2.7078,-2.7069,-2.7102,-2.7082,-2.7111,-2.7123,-2.7133,-2.7164,-2.722,-2.7259,-2.7311,-2.7439,-2.7444,-2.7499,-2.7518,-2.7533,-2.7548,-2.7616,-2.7641,-2.7377,-2.7377,-2.7377,0,0,-2.6965,-2.6979,-2.7019,-2.7083,-2.7102,-2.7167,-2.708,-2.7152,-2.7199,-2.7134,-2.7229,-2.7237,-2.7269,-2.7384,-2.7435,-2.7396,-2.7621,-2.7547,-2.7559,-2.7566,-2.763,-2.7655,-2.7677,-2.7385,-2.7383,-2.7382,0,0,-2.7133,-2.7149,-2.7236,-2.7257,-2.7288,-2.728,-2.7302,-2.7322,-2.7325,-2.7419,-2.7371,-2.7427,-2.7525,-2.755,-2.7576,-2.775,-2.7713,-2.7768,-2.7867,-2.7935,-2.7956,-2.7974,-2.8038,-2.8061,-2.7782,-2.7782,-2.7782,0,-2.7221,-2.7315,-2.7286,-2.7361,-2.7391,-2.7332,-2.7422,-2.7443,-2.749,-2.7512,-2.7468,-2.7589,-2.7606,-2.7726,-2.7768,-2.779,-2.7814,-2.7766,-2.7954,-2.7973,-2.7989,-2.805,-2.8074,-2.7789,-2.7788,-2.7787,-2.7787,0,-2.7423,-2.7489,-2.7556,-2.7601,-2.7638,-2.772,-2.7704,-2.7744,-2.7721,-2.7718,-2.7815,-2.7833,-2.7888,-2.7914,-2.7893,-2.8031,-2.8006,-2.7959,-2.7881,-2.8022,-2.8078,-2.8101,-2.7798,-2.7796,-2.7794,-2.7792,0,0,-2.7658,-2.7683,-2.7709,-2.7729,-2.7756,-2.7807,-2.7886,-2.7938,-2.7974,-2.8007,-2.8074,-2.8157,-2.8113,-2.8142,-2.8122,-2.818,-2.8319,-2.8126,-2.8126,-2.8163,-2.8474,-2.8511,-2.8538,-2.8292,-2.8297,-2.83,-2.8471,0,-2.7826,-2.7962,-2.7938,-2.807,-2.8131,-2.8075,-2.8143,-2.8168,-2.8168,-2.822,-2.8219,-2.8279,-2.8215,-2.8232,-2.8288,-2.829,-2.8381,-2.8277,-2.8356,-2.8359,-2.8352,-2.8567,-2.8607,-2.8769,-2.8493,-2.8497,-2.8499,0,-2.8042,-2.8082,-2.8221,-2.8238,-2.8263,-2.8325,-2.8371,-2.842,-2.8447,-2.8443,-2.8474,-2.8442,-2.8521,-2.844,-2.8549,-2.8479,-2.8509,-2.8515,-2.852,-2.8529,-2.844,-2.8584,-2.8819,-2.8844,-2.8534,-2.8531,-2.8528,0,-2.8202,-2.829,-2.8384,-2.8402,-2.8425,-2.847,-2.8481,-2.8503,-2.8536,-2.8576,-2.8597,-2.8646,-2.8673,-2.8712,-2.8695,-2.8637,-2.8808,-2.8725,-2.8807,-2.8808,-2.8848,-2.8847,-2.9094,-2.8864,-2.8863,-2.8863,-2.8862,0,-2.8395,-2.8482,-2.8456,-2.8515,-2.861,-2.8581,-2.8677,-2.8682,-2.8701,-2.876,-2.8714,-2.877,-2.8742,-2.8797,-2.8783,-2.8876,-2.8888,-2.8888,-2.8884,-2.8894,-2.8894,-2.8915,-2.8904,-2.8869,-2.8868,-2.8867,-2.8866,0,-2.8591,-2.8576,-2.8676,-2.8688,-2.8692,-2.8763,-2.8774,-2.8828,-2.8822,-2.8897,-2.8913,-2.8905,-2.8967,-2.8952,-2.9019,-2.901,-2.9128,-2.9108,-2.9119,-2.9115,-2.9199,-2.9193,-2.9471,-2.9507,-2.9251,-2.9254,-2.9256,0,-2.8716,-2.8782,-2.88,-2.8836,-2.885,-2.8908,-2.894,-2.8913,-2.8949,-2.8983,-2.9035,-2.9091,-2.9135,-2.9236,-2.9237,-2.9288,-2.9271,-2.9365,-2.9279,-2.9286,-2.9275,-2.9272,-2.9279,-2.9383,-2.9386,-2.9389,-2.939,0,-2.8941,-2.893,-2.8978,-2.9025,-2.9065,-2.91,-2.9131,-2.9162,-2.9137,-2.918,-2.9241,-2.9276,-2.9343,-2.9401,-2.9447,-2.9459,-2.9422,-2.9417,-2.9439,-2.9451,-2.9456,-2.9456,-2.9168,-2.9412,-2.941,-2.9408,-2.9407,-2.9406,-2.9107,-2.9163,-2.9184,-2.924,-2.9259,-2.9289,-2.9341,-2.9341,-2.9391,-2.9443,-2.9423,-2.9494,-2.9518,-2.9577,-2.9594,-2.965,-2.9614,-2.9646,-2.9655,-2.9664,-2.9675,-2.9444,-2.9658,-2.9657,-2.9657,-2.9656,-2.9656,0,-2.9331,-2.9341,-2.9392,-2.9436,-2.948,-2.9437,-2.9469,-2.9509,-2.9571,-2.9596,-2.964,-2.971,-2.9765,-2.9769,-2.9821,-2.9864,-2.9848,-2.9879,-2.9877,-2.9881,-2.9703,-2.9679,-2.9891,-2.9891,-2.9891,-2.9891,-2.9891,-2.9891,-2.9453,-2.9545,-2.9537,-2.9638,-2.9647,-2.9716,-2.9738,-2.9765,-2.9784,-2.9865,-2.991,-2.9911,-2.9927,-2.9979,-3.0028,-3.0028,-3.005,-3.0088,-3.0082,-2.9916,-2.9893,-2.9871,-2.9849,-3.0093,-3.0093,-3.0255,-3.0256,-3.0258]},{"header":{"parameterUnit":"m.s-1","parameterCategory":1,"la1":30.2991,"la2":30.254,"lo1":-89.0895,"lo2":-89.0444,"dy":0.0017,"dx":0.0017,"nx":28,"ny":28,"refTime":"2025-01-15T03:00:00:Z","depth":0,"parameterNumber":3,"parameterNumberName":"V-component_of_WINDS"},"data":[0,0,0,0,0,0,0,0,0,0,0,0,0,0,0,0,0,0,0,0,0,0,0,0,0,0,0,0,0,0,0,0,0,0,0,0,0,0,0,0,0,0,0,0,0,0,0,0,0,0,0,0,0,0,0,0,0,0,-3.3419,-3.342,0,-3.3459,-3.3459,-3.346,-3.342,-3.3419,-3.3417,-3.3416,-3.3454,-3.3457,-3.3459,0,0,0,0,0,0,0,0,0,0,0,0,0,-3.3306,-3.3308,-3.3419,-3.342,-3.342,-3.3459,-3.3459,-3.346,-3.3421,-3.3419,-3.3417,-3.3415,-3.3453,-3.3456,-3.3459,0,0,0,0,0,0,0,0,0,0,0,0,0,-3.3351,-3.3309,-3.3419,-3.3405,-3.3404,-3.3459,-3.3459,-3.346,-3.3421,-3.3419,-3.3416,-3.3414,-3.3453,-3.3456,-3.346,-3.3529,0,0,-3.3471,-3.3473,0,0,0,0,0,0,0,0,-3.3349,-3.3355,-3.3407,-3.3406,-3.3405,-3.3432,-3.3433,-3.3483,-3.3422,-3.3415,-3.3416,-3.3413,-3.3449,-3.3453,-3.3465,-3.3531,-3.3533,-3.3471,-3.3474,-3.3475,-3.3476,0,0,0,0,0,0,0,-3.3346,-3.3353,-3.3435,-3.3407,-3.3407,-3.3396,-3.34,-3.3443,-3.3444,-3.3415,-3.3412,-3.3418,-3.3448,-3.3462,-3.3466,-3.3533,-3.3471,-3.3475,-3.3477,-3.3478,-3.3656,-3.3658,0,0,0,0,0,0,-3.3344,-3.3351,-3.3433,-3.3436,-3.3371,-3.34,-3.3404,-3.3426,-3.3444,-3.3444,-3.342,-3.3416,-3.3456,-3.3461,-3.3467,-3.3548,-3.3475,-3.3479,-3.3481,-3.3653,-3.3656,-3.3659,0,0,0,0,0,0,-3.3342,-3.3352,-3.3432,-3.3393,-3.3402,-3.3404,-3.3429,-3.3428,-3.3442,-3.3447,-3.3447,-3.3434,-3.3455,-3.3462,-3.3514,-3.3549,-3.348,-3.3484,-3.365,-3.3654,-3.3658,-3.3712,0,0,0,0,0,0,-3.3339,-3.3351,-3.3379,-3.3394,-3.3404,-3.3479,-3.3431,-3.343,-3.3448,-3.3444,-3.346,-3.3461,-3.3453,-3.3508,-3.3517,-3.3553,-3.3487,-3.3647,-3.3652,-3.3657,-3.3707,-3.3717,-3.3725,0,0,0,0,0,-3.3335,-3.3392,-3.338,-3.3391,-3.3439,-3.3481,-3.3487,-3.3479,-3.3452,-3.3478,-3.3481,-3.346,-3.3544,-3.3514,-3.3524,-3.3561,-3.3645,-3.3651,-3.3656,-3.3703,-3.3715,-3.3725,0,0,0,0,0,0,-3.3381,-3.3394,-3.3381,-3.3445,-3.3462,-3.3475,-3.3508,-3.3492,-3.3517,-3.3512,-3.3499,-3.3503,-3.3558,-3.3564,-3.3531,-3.3628,-3.359,-3.3598,-3.3622,-3.3633,-3.3642,-3.3639,-3.349,0,0,0,0,0,-3.3399,-3.3433,-3.3442,-3.3498,-3.3507,-3.3506,-3.3525,-3.3516,-3.3534,-3.3541,-3.3548,-3.3564,-3.3594,-3.3614,-3.3642,-3.3708,-3.371,-3.3738,-3.3747,-3.3755,-3.3761,-3.3795,-3.3807,-3.3678,-3.3677,-3.3677,0,0,-3.3435,-3.3447,-3.3469,-3.3507,-3.352,-3.3554,-3.3513,-3.3552,-3.3577,-3.3546,-3.3596,-3.3601,-3.3619,-3.3678,-3.3704,-3.3685,-3.3798,-3.3762,-3.3768,-3.377,-3.3802,-3.3814,-3.3825,-3.3681,-3.3681,-3.368,0,0,-3.352,-3.3532,-3.3579,-3.3593,-3.3612,-3.3611,-3.3622,-3.3637,-3.3639,-3.3689,-3.3666,-3.3695,-3.3748,-3.3761,-3.3774,-3.3862,-3.3843,-3.3872,-3.392,-3.3953,-3.3963,-3.3972,-3.4003,-3.4014,-3.3879,-3.3879,-3.3879,0,-3.3562,-3.3615,-3.3605,-3.3646,-3.3662,-3.3636,-3.3683,-3.3696,-3.3724,-3.3735,-3.3714,-3.3778,-3.3788,-3.3849,-3.387,-3.3882,-3.3893,-3.387,-3.3963,-3.3972,-3.398,-3.4009,-3.402,-3.3882,-3.3882,-3.3881,-3.3881,0,-3.3666,-3.3703,-3.3738,-3.3765,-3.3786,-3.3829,-3.3825,-3.3847,-3.3837,-3.3837,-3.3887,-3.3898,-3.3927,-3.3941,-3.3932,-3.4,-3.3988,-3.3965,-3.3926,-3.3996,-3.4022,-3.4033,-3.3887,-3.3886,-3.3885,-3.3884,0,0,-3.3781,-3.3802,-3.3815,-3.3826,-3.3845,-3.3873,-3.3914,-3.3943,-3.3962,-3.3981,-3.4014,-3.4059,-3.4037,-3.4053,-3.4044,-3.4073,-3.414,-3.4046,-3.4046,-3.4062,-3.4215,-3.4232,-3.4245,-3.4128,-3.413,-3.4132,-3.4213,0,-3.3865,-3.3938,-3.3929,-3.3998,-3.4031,-3.4006,-3.4042,-3.4057,-3.4058,-3.4085,-3.4086,-3.4118,-3.4088,-3.4097,-3.4124,-3.4126,-3.4171,-3.412,-3.4158,-3.4159,-3.4153,-3.4259,-3.4277,-3.4353,-3.4224,-3.4225,-3.4227,0,-3.3973,-3.3996,-3.4069,-3.4081,-3.4095,-3.4127,-3.4152,-3.4179,-3.4195,-3.4194,-3.421,-3.4196,-3.4236,-3.4197,-3.4251,-3.4217,-3.4232,-3.4235,-3.4238,-3.424,-3.4197,-3.4263,-3.4377,-3.4388,-3.4243,-3.4242,-3.4241,0,-3.4048,-3.4098,-3.4147,-3.4158,-3.4174,-3.4197,-3.4205,-3.4219,-3.4236,-3.4257,-3.4268,-3.4294,-3.4308,-3.4328,-3.4321,-3.4293,-3.4376,-3.4336,-3.4375,-3.4375,-3.4393,-3.4392,-3.451,-3.4404,-3.4404,-3.4404,-3.4403,0,-3.4142,-3.4187,-3.4181,-3.4211,-3.426,-3.4249,-3.4298,-3.4302,-3.4314,-3.4344,-3.4324,-3.4352,-3.4341,-3.4368,-3.4363,-3.4408,-3.4414,-3.4414,-3.4411,-3.4415,-3.4415,-3.4424,-3.4418,-3.4407,-3.4406,-3.4405,-3.4405,0,-3.4235,-3.4232,-3.4284,-3.4295,-3.4299,-3.4334,-3.4343,-3.4371,-3.4371,-3.4408,-3.4416,-3.4416,-3.4446,-3.4441,-3.4475,-3.4471,-3.4527,-3.4519,-3.4522,-3.4519,-3.4558,-3.4554,-3.4686,-3.4702,-3.4586,-3.4587,-3.4588,0,-3.4295,-3.4328,-3.4343,-3.4362,-3.4371,-3.4402,-3.4419,-3.441,-3.4429,-3.4448,-3.4473,-3.4502,-3.4525,-3.4575,-3.4577,-3.4602,-3.4594,-3.4638,-3.4597,-3.4599,-3.4593,-3.4591,-3.4593,-3.4646,-3.4647,-3.4648,-3.4649,0,-3.4401,-3.4398,-3.4424,-3.445,-3.4472,-3.4492,-3.4509,-3.4525,-3.4517,-3.4539,-3.4571,-3.4588,-3.4622,-3.4651,-3.4674,-3.4681,-3.4663,-3.4662,-3.4672,-3.4676,-3.4675,-3.4675,-3.4543,-3.4659,-3.4658,-3.4657,-3.4657,-3.4656,-3.4478,-3.4506,-3.4521,-3.4551,-3.4563,-3.458,-3.4606,-3.4609,-3.4635,-3.4662,-3.4655,-3.469,-3.4703,-3.4733,-3.4742,-3.4769,-3.4752,-3.4767,-3.4771,-3.4774,-3.4778,-3.4672,-3.4773,-3.4773,-3.4773,-3.4772,-3.4772,0,-3.4582,-3.459,-3.4618,-3.4643,-3.4666,-3.4648,-3.4666,-3.4686,-3.4718,-3.4732,-3.4755,-3.479,-3.4817,-3.4821,-3.4846,-3.4866,-3.4859,-3.4873,-3.4871,-3.4873,-3.4792,-3.4781,-3.4879,-3.4879,-3.4879,-3.4879,-3.4879,-3.4879,-3.4639,-3.4686,-3.4684,-3.4736,-3.4743,-3.4778,-3.479,-3.4805,-3.4816,-3.4856,-3.4879,-3.4881,-3.4891,-3.4916,-3.494,-3.494,-3.495,-3.4968,-3.4965,-3.4889,-3.4879,-3.4868,-3.4857,-3.497,-3.497,-3.5043,-3.5043,-3.5044]}]]